Location: Augustenthal
(51.7167°N, 10.2833°E)
Time: 23:15:13
(UTC+00:00)

Cosmos 1536 - Pass Details

Date: 18 May 2021
Orbit: 539 x 559 km, 82.5° (Epoch: 24 June)

Event Time Altitude Azimuth Distance (km) Brightness Sun altitude
Rises 20:30:33 0° 347° (NNW) 2,743 7.7 -10.0°
Reaches altitude 10° 20:32:45 10° 345° (NNW) 1,840 6.7 -10.2°
Maximum altitude 20:36:46 68° 263° (W) 597 3.1 -10.6°
Drops below altitude 10° 20:40:43 10° 180° (S) 1,813 5.0 -11.0°
Enters shadow 20:40:44 10° 180° (S) 1,817 5.0 -11.0°
